Show Low, AZ

3:01 AM MST on June 23, 2017 (GMT -0700)
Show Low Municipal

Weather History for KSOW - November, 2013

Change the Weather History Date:

Sunday, November 24, 2013

  Actual Average Record
Temperature  
Mean Temperature 30 °F -  
Max Temperature 33 °F 50 °F 71 °F (1970)
Min Temperature 28 °F 30 °F 4 °F (1975)
Degree Days  
Heating Degree Days 34    
Moisture  
Dew Point 28 °F    
Average Humidity 90    
Maximum Humidity 100    
Minimum Humidity 80    
Precipitation  
Precipitation 0.07 in - - ()
Sea Level Pressure  
Sea Level Pressure 30.12 in    
Wind  
Wind Speed 7 mph (SSW)    
Max Wind Speed 16 mph    
Max Gust Speed 22 mph    
Visibility 8 miles    
Events Rain , Snow    
Averages and records for this station are not official NWS values.
T = Trace of Precipitation, MM = Missing Value Source: NWS Daily Summary

Daily Weather History Graph

Daily Weather History Graph

Search for Another Location

Airport or City:

Trip Planner

Search our weather history database for the weather conditions in past years. The results will help you decide how hot, cold, wet, or windy it might be!

Date:

Astronomy

Nov. 24, 2013 Rise Set
Actual Time 7:01 AM MST 5:11 PM MST
Civil Twilight 6:34 AM MST 5:38 PM MST
Nautical Twilight 6:03 AM MST 6:09 PM MST
Astronomical Twilight 5:33 AM MST 6:39 PM MST
Moon 11:32 PM MST (11/24) 11:58 AM MST (11/24)
Length of Visible Light 11h 04m
Length of Day
10h 09m
Waning Gibbous, 60% of the Moon is Illuminated
Nov 24
Waning Gibbous
Nov 25
Last Quarter
Dec 2
New
Dec 9
First Quarter
Dec 17
Full

Hourly Weather History & Observations

Time (MST) Temp. Windchill Dew Point Humidity Pressure Visibility Wind Dir Wind Speed Gust Speed Precip Events Conditions
12:15 AM 32.0 °F 27.5 °F 30.2 °F 93% 30.13 in 7.0 mi SSE 4.6 mph - N/A   Overcast
12:35 AM 32.0 °F 27.5 °F 28.4 °F 87% 30.12 in 1.8 mi SSE 4.6 mph - N/A Snow Light Snow
12:55 AM 32.0 °F 28.7 °F 30.2 °F 93% 30.11 in 2.0 mi SSW 3.5 mph - N/A Snow Light Snow
1:15 AM 32.0 °F 28.7 °F 30.2 °F 93% 30.11 in 1.0 mi SSW 3.5 mph - 0.01 in Snow Light Snow
1:35 AM 32.0 °F 28.7 °F 28.4 °F 87% 30.10 in 0.8 mi South 3.5 mph - 0.04 in Snow Light Snow
1:55 AM 32.0 °F 27.5 °F 28.4 °F 87% 30.10 in 0.8 mi South 4.6 mph - 0.06 in Snow Light Snow
2:15 AM 32.0 °F 25.6 °F 30.2 °F 93% 30.10 in 1.0 mi South 6.9 mph - 0.01 in Snow Light Snow
2:35 AM 30.2 °F 25.4 °F 28.4 °F 93% 30.10 in 2.5 mi SSE 4.6 mph - 0.01 in Snow Light Snow
2:55 AM 30.2 °F 24.3 °F 28.4 °F 93% 30.10 in 10.0 mi South 5.8 mph - 0.01 in   Mostly Cloudy
3:15 AM 32.0 °F 25.6 °F 28.4 °F 87% 30.10 in 10.0 mi South 6.9 mph - N/A   Mostly Cloudy
3:35 AM 32.0 °F 23.6 °F 28.4 °F 87% 30.09 in 6.0 mi South 10.4 mph - N/A   Scattered Clouds
3:55 AM 32.0 °F 25.6 °F 28.4 °F 87% 30.09 in 10.0 mi South 6.9 mph - N/A   Partly Cloudy
4:15 AM 30.2 °F 23.4 °F 28.4 °F 93% 30.08 in 9.0 mi South 6.9 mph - N/A   Partly Cloudy
4:35 AM 30.2 °F 23.4 °F 28.4 °F 93% 30.09 in 5.0 mi SSW 6.9 mph - N/A   Partly Cloudy
4:55 AM 30.2 °F 22.6 °F 28.4 °F 93% 30.09 in 1.8 mi South 8.1 mph - N/A Snow Light Snow
5:15 AM 30.2 °F 23.4 °F 28.4 °F 93% 30.09 in 7.0 mi South 6.9 mph - N/A Snow Light Snow
5:35 AM 30.2 °F 24.3 °F 28.4 °F 93% 30.09 in 10.0 mi SSW 5.8 mph - N/A   Overcast
5:55 AM 28.4 °F 23.3 °F 28.4 °F 100% 30.10 in 10.0 mi SSW 4.6 mph - N/A   Overcast
6:15 AM 28.4 °F 24.6 °F 26.6 °F 93% 30.10 in 10.0 mi South 3.5 mph - N/A   Overcast
6:35 AM 28.4 °F 24.6 °F 26.6 °F 93% 30.10 in 10.0 mi SSW 3.5 mph - N/A   Mostly Cloudy
6:55 AM 28.4 °F 22.2 °F 26.6 °F 93% 30.10 in 10.0 mi SSW 5.8 mph - N/A   Mostly Cloudy
7:15 AM 28.4 °F 23.3 °F 26.6 °F 93% 30.11 in 10.0 mi SW 4.6 mph - N/A   Mostly Cloudy
7:35 AM 28.4 °F 22.2 °F 26.6 °F 93% 30.11 in 10.0 mi SW 5.8 mph - N/A   Mostly Cloudy
7:55 AM 28.4 °F 20.4 °F 26.6 °F 93% 30.11 in 10.0 mi SW 8.1 mph - N/A   Scattered Clouds
8:15 AM 28.4 °F 21.2 °F 26.6 °F 93% 30.11 in 10.0 mi South 6.9 mph - N/A   Mostly Cloudy
8:35 AM 28.4 °F 20.4 °F 26.6 °F 93% 30.12 in 10.0 mi South 8.1 mph - N/A   Mostly Cloudy
8:55 AM 30.2 °F 24.3 °F 28.4 °F 93% 30.13 in 10.0 mi SSW 5.8 mph - N/A   Mostly Cloudy
9:15 AM 32.0 °F 26.4 °F 28.4 °F 87% 30.14 in 10.0 mi SW 5.8 mph - N/A   Overcast
9:35 AM 30.2 °F 21.3 °F 28.4 °F 93% 30.14 in 10.0 mi SSW 10.4 mph - N/A   Overcast
9:55 AM 32.0 °F 22.5 °F 28.4 °F 87% 30.14 in 10.0 mi SSW 12.7 mph - N/A   Overcast
10:15 AM 30.2 °F 21.3 °F 28.4 °F 93% 30.14 in 5.0 mi SSW 10.4 mph - N/A   Overcast
10:35 AM 30.2 °F 21.3 °F 28.4 °F 93% 30.15 in 3.0 mi SW 10.4 mph - N/A Snow Light Snow
10:55 AM 32.0 °F 22.5 °F 28.4 °F 87% 30.15 in 6.0 mi SSW 12.7 mph - N/A Snow Light Snow
11:15 AM 32.0 °F 23.6 °F 28.4 °F 87% 30.15 in 4.0 mi SSW 10.4 mph - N/A Rain Light Rain
11:35 AM 32.0 °F 23.0 °F 28.4 °F 87% 30.14 in 4.0 mi SSW 11.5 mph - N/A   Overcast
11:55 AM 32.0 °F 23.0 °F 30.2 °F 93% 30.13 in 6.0 mi SSW 11.5 mph - N/A Rain Light Rain
12:15 PM 32.0 °F 22.5 °F 30.2 °F 93% 30.12 in 10.0 mi SSW 12.7 mph - N/A   Mostly Cloudy
12:35 PM 32.0 °F 22.1 °F 30.2 °F 93% 30.11 in 10.0 mi SSW 13.8 mph - N/A   Overcast
12:55 PM 32.0 °F 21.2 °F 28.4 °F 87% 30.11 in 10.0 mi South 16.1 mph - N/A   Mostly Cloudy
1:15 PM 33.8 °F 23.5 °F 30.2 °F 87% 30.10 in 7.0 mi SSW 16.1 mph 21.9 mph N/A Rain Light Rain
1:35 PM 33.8 °F 23.9 °F 30.2 °F 87% 30.10 in 10.0 mi SSW 15.0 mph - N/A   Mostly Cloudy
1:55 PM 32.0 °F 22.1 °F 28.4 °F 87% 30.09 in 10.0 mi SSW 13.8 mph - N/A   Mostly Cloudy
2:15 PM 32.0 °F 23.6 °F 28.4 °F 87% 30.10 in 5.0 mi SSW 10.4 mph - N/A Rain Light Rain
2:35 PM 32.0 °F 22.1 °F 28.4 °F 87% 30.11 in 10.0 mi SSW 13.8 mph - N/A   Overcast
2:55 PM 32.0 °F 24.2 °F 28.4 °F 87% 30.11 in 7.0 mi SW 9.2 mph - N/A Rain Light Rain
3:15 PM 32.0 °F 24.2 °F 28.4 °F 87% 30.12 in 10.0 mi SW 9.2 mph - N/A   Overcast
3:35 PM 32.0 °F 23.6 °F 28.4 °F 87% 30.12 in 10.0 mi SSW 10.4 mph - N/A   Overcast
3:55 PM 32.0 °F 23.0 °F 28.4 °F 87% 30.12 in 7.0 mi SW 11.5 mph - N/A Rain Light Rain
4:15 PM 32.0 °F 23.0 °F 28.4 °F 87% 30.12 in 10.0 mi SW 11.5 mph - N/A   Overcast
4:35 PM 32.0 °F 23.0 °F 28.4 °F 87% 30.12 in 10.0 mi SSW 11.5 mph - N/A   Mostly Cloudy
4:55 PM 32.0 °F 23.6 °F 26.6 °F 80% 30.13 in 10.0 mi SW 10.4 mph - N/A   Mostly Cloudy
5:15 PM 32.0 °F 23.6 °F 26.6 °F 80% 30.12 in 10.0 mi SW 10.4 mph - N/A   Overcast
5:35 PM 30.2 °F 20.2 °F 26.6 °F 86% 30.13 in 10.0 mi SSW 12.7 mph - N/A   Mostly Cloudy
5:55 PM 30.2 °F 21.3 °F 26.6 °F 86% 30.13 in 10.0 mi SW 10.4 mph - N/A   Mostly Cloudy
6:15 PM 30.2 °F 20.8 °F 26.6 °F 86% 30.14 in 10.0 mi SSW 11.5 mph - N/A   Overcast
6:35 PM 30.2 °F 22.6 °F 26.6 °F 86% 30.14 in 10.0 mi SSW 8.1 mph - N/A   Overcast
6:55 PM 30.2 °F 21.9 °F 26.6 °F 86% 30.15 in 10.0 mi SSW 9.2 mph - N/A   Overcast
7:15 PM 28.4 °F 21.2 °F 26.6 °F 93% 30.15 in 10.0 mi SSW 6.9 mph - N/A   Mostly Cloudy
7:35 PM 28.4 °F 22.2 °F 26.6 °F 93% 30.15 in 10.0 mi SW 5.8 mph - N/A   Mostly Cloudy
7:55 PM 30.2 °F 23.4 °F 26.6 °F 86% 30.15 in 10.0 mi SW 6.9 mph - N/A   Overcast
8:15 PM 30.2 °F 22.6 °F 26.6 °F 86% 30.15 in 10.0 mi South 8.1 mph - N/A   Overcast
8:35 PM 28.4 °F 21.2 °F 26.6 °F 93% 30.15 in 10.0 mi South 6.9 mph - N/A   Mostly Cloudy
8:55 PM 28.4 °F 21.2 °F 26.6 °F 93% 30.15 in 10.0 mi South 6.9 mph - N/A   Mostly Cloudy
9:15 PM 28.4 °F 23.3 °F 26.6 °F 93% 30.16 in 10.0 mi SSW 4.6 mph - N/A   Overcast
9:35 PM 30.2 °F 25.4 °F 26.6 °F 86% 30.16 in 10.0 mi SSW 4.6 mph - N/A   Overcast
9:55 PM 30.2 °F 25.4 °F 26.6 °F 86% 30.16 in 10.0 mi SSW 4.6 mph - N/A   Overcast
10:15 PM 30.2 °F 25.4 °F 26.6 °F 86% 30.16 in 10.0 mi SSW 4.6 mph - N/A   Overcast
10:35 PM 30.2 °F 24.3 °F 26.6 °F 86% 30.16 in 10.0 mi SSW 5.8 mph - N/A   Overcast
10:55 PM 28.4 °F 21.2 °F 26.6 °F 93% 30.15 in 10.0 mi South 6.9 mph - N/A   Overcast
11:15 PM 28.4 °F 23.3 °F 26.6 °F 93% 30.15 in 10.0 mi SSW 4.6 mph - N/A   Overcast
11:35 PM 28.4 °F 24.6 °F 26.6 °F 93% 30.16 in 10.0 mi SSW 3.5 mph - N/A   Overcast
11:55 PM 30.2 °F 26.7 °F 26.6 °F 86% 30.15 in 10.0 mi SW 3.5 mph - N/A   Overcast